Regional Weather Roundup
Issued by NWS State College, PA

Home | Current Version | Previous Version | Graphics & Text | Print | Product List | Glossary Off
Versions: 1 2 3 4 5 6 7 8 9 10 11 12 13 14 15 16 17 18 19 20 21 22 23 24 25 26 27 28 29 30 31 32 33 34 35 36 37 38 39 40 41 42 43 44 45 46 47 48 49 50

000
ASUS41 KCTP 251810
RWRCTP

REGIONAL WEATHER ROUNDUP
NATIONAL WEATHER SERVICE STATE COLLEGE PA
200 PM EDT TUE JUL 25 2017

Note: "fair" indicates few or no clouds below 12,000 feet with no
significant weather and/or obstructions to visibility.

* = STATION THAT DOES NOT REPORT PRECIPITATION /E.G. RAIN...SNOW...ETC/
    THUNDER OR FOG.

PAZ002>004-007>009-013>016-020>023-029>032-251900-
WESTERN PENNSYLVANIA

CITY           SKY/WX    TMP DP  RH WIND       PRES   REMARKS
ERIE           PTSUNNY   71  55  56 VRB7      30.21S
MEADVILLE      PTSUNNY   70  58  65 MISG      30.21S
FRANKLIN*      PTSUNNY   70  55  60 N7        30.20F
NEW CASTLE     FAIR      70  59  68 VRB5      30.21F
BEAVER COUNTY  CLOUDY    70  59  68 N8        30.20F
BUTLER*        CLOUDY    70  57  64 NW7       30.20F
PITTSBURGH INT CLOUDY    70  58  65 N8        30.20S
PITTSBURGH     CLOUDY    69  57  65 CALM      30.20R
INDIANA*       CLOUDY    66  59  77 NW6       30.23R
LATROBE        PTSUNNY   68  59  73 VRB6      30.21R
WASHINGTON CO* CLOUDY    68  57  68 NW5       30.21S
$$

PAZ004>006-010>012-017>019-024>028-033>037-041-042-045-046-049>053-251900-
CENTRAL PENNSYLVANIA

CITY           SKY/WX    TMP DP  RH WIND       PRES   REMARKS
BRADFORD       CLOUDY    65  57  75 N12G17    30.20F
DUBOIS         CLOUDY    67  54  63 N12       30.19R
CLEARFIELD     CLOUDY    69  57  65 N8        30.18R
JOHNSTOWN      CLOUDY    64  57  78 NW7       30.21R
ALTOONA        CLOUDY    67  59  75 NW8       30.19R
STATE COLLEGE  CLOUDY    68  57  68 NW9G17    30.16R
WILLIAMSPORT   CLOUDY    71  59  65 SW6       30.12R
SELINSGROVE    CLOUDY    71  61  70 NW5       30.14R
FT INDIANTOWN  CLOUDY    73  59  62 NW6       30.12R
CAPITAL CITY   PTSUNNY   75  59  57 NW8       30.13R
HARRISBURG     CLOUDY    73  61  65 NW8       30.12R
YORK           CLOUDY    74  62  66 NW7       30.13R
$$

PAZ038>040-043-044-047-048-054-055-060>062-067>071-251900-
EASTERN PENNSYLVANIA

CITY           SKY/WX    TMP DP  RH WIND       PRES   REMARKS
SCRANTON       CLOUDY    67  62  84 CALM      30.14R
MOUNT POCONO   CLOUDY    64  60  87 N6        30.14S
ALLENTOWN      CLOUDY    74  62  66 NE5       30.10R
QUAKERTOWN*    CLOUDY    68  66  94 CALM      30.12R
READING        CLOUDY    74  64  71 W5        30.10R
LANCASTER      CLOUDY    76  62  62 N12       30.12R
COATESVILLE    MOCLDY    75  63  64 NW10      30.13R
POTTSTOWN      CLOUDY    72  64  76 CALM      30.11S
BLUE BELL      CLOUDY    70  64  83 CALM      30.11S
DOYLESTOWN     CLOUDY    73  63  70 CALM      30.10S
WILLOW GROVE   NOT AVBL
NORTH PHILA    CLOUDY    77  63  61 E5        30.11S
PHILADELPHIA   PTSUNNY   77  62  59 NE8       30.09S
$$




USA.gov is the U.S. government's official web portal to all federal, state and local government web resources and services.